Home   Weather   Oberursel (Taunus)   Past weeks

Flag for Germany Past Weather in Oberursel (Taunus), Hesse, Germany — Yesterday and Last 2 Weeks

Now
52 °F

Passing clouds.


Feels Like: 51 °F
Forecast: 50 / 69 °F
Wind: 3 mph from Southwest

Location: Frankfurt-M-Flughafen Airport

Current Time: Aug 20, 2017 at 4:22:23 am

Latest Report: Aug 20, 2017 at 3:50 am


Visibility: N/A

Pressure: 30.18 "Hg

Humidity: 94%

Dew Point: 50 °F

Location of Oberursel (Taunus)Location

Past Weather in Oberursel (Taunus) — Graph

°F

Oberursel (Taunus) Temperature Yesterday

Maximum temperature yesterday: 70 °F (at 4:50 pm)
Minimum temperature yesterday: 55 °F (at 6:20 am)
Average temperature yesterday: 62 °F

High & Low Weather Summary for the Past Weeks

 TemperatureHumidityPressure
High82 °F (Aug 14, 4:50 pm)100% (Aug 6, 5:50 am)30.21 "Hg (Aug 6, 5:50 am)
Low52 °F (Aug 6, 5:50 am)30% (Aug 7, 3:50 pm)29.83 "Hg (Aug 8, 6:20 am)
Average66 °F75%30.05 "Hg
* Reported Aug 5 2:20 am — Aug 20 2:50 am, Oberursel (Taunus). Weather by CustomWeather, © 2017

Note: Actual official high and low records may vary slightly from our data, if they occured in-between our weather recording intervals... More about our weather records

Advertising

Oberursel (Taunus) Weather History for the Previous 24 Hours

Scroll right to see more
 ConditionsComfort  
Time TempWeatherWind HumidityBarometerVisibility
2:50 am
Sun, Aug 20
52 °FLight fog.6 mph100%30.15 "HgN/A
2:20 am52 °FLight fog.5 mph100%30.15 "HgN/A
1:50 am52 °FFog.3 mph100%30.15 "HgN/A
1:20 am52 °FFog.5 mph100%30.15 "HgN/A
12:50 am54 °FFog.2 mph94%30.15 "HgN/A
12:20 am55 °FFog.2 mph94%30.15 "HgN/A
11:50 pm
Sat, Aug 19
55 °FPassing clouds.1 mph94%30.15 "HgN/A
11:20 pm55 °FPassing clouds.1 mph94%30.15 "HgN/A
10:50 pm57 °FPassing clouds.2 mph88%30.15 "HgN/A
10:20 pm59 °FPassing clouds.3 mph82%30.15 "HgN/A
9:50 pm59 °FPassing clouds.7 mph82%30.15 "HgN/A
9:20 pm61 °FScattered showers. Partly cloudy.9 mph77%30.12 "HgN/A
8:50 pm64 °FScattered showers. Passing clouds.13 mph64%30.12 "HgN/A
8:20 pm66 °FScattered showers. Scattered clouds.9 mph52%30.12 "HgN/A
7:50 pm66 °FPartly sunny.8 mph56%30.09 "HgN/A
7:20 pm66 °FScattered showers. Scattered clouds.9 mph56%30.09 "HgN/A
6:50 pm68 °FSunny.8 mph56%30.09 "Hg10 mi
6:20 pm70 °FSunny.9 mph50%30.09 "Hg10 mi
5:50 pm70 °FPassing clouds.14 mph46%30.09 "HgN/A
5:20 pm70 °FSunny.15 mph50%30.09 "Hg10 mi
4:50 pm70 °FSunny.14 mph50%30.09 "Hg10 mi
4:20 pm68 °FPassing clouds.14 mph49%30.09 "HgN/A
3:50 pm68 °FSunny.13 mph49%30.09 "Hg10 mi
3:20 pm68 °FSunny.15 mph49%30.09 "Hg10 mi
2:50 pm68 °FSunny.13 mph53%30.09 "Hg10 mi
2:20 pm68 °FPartly sunny.13 mph49%30.09 "HgN/A
1:50 pm66 °FPartly sunny.12 mph49%30.09 "HgN/A
1:20 pm66 °FScattered clouds.17 mph52%30.09 "HgN/A
12:50 pm66 °FScattered clouds.14 mph49%30.09 "HgN/A
12:20 pm66 °FScattered clouds.16 mph52%30.09 "HgN/A
11:50 am64 °FScattered clouds.15 mph56%30.09 "HgN/A
11:20 am64 °FScattered clouds.16 mph60%30.09 "HgN/A
10:50 am63 °FPassing clouds.14 mph64%30.09 "HgN/A
10:20 am63 °FPassing clouds.16 mph64%30.09 "HgN/A
9:50 am63 °FPassing clouds.14 mph68%30.09 "HgN/A
9:20 am61 °FPassing clouds.13 mph72%30.09 "HgN/A
8:50 am61 °FPassing clouds.10 mph72%30.07 "HgN/A
8:20 am59 °FPassing clouds.12 mph77%30.07 "HgN/A
7:50 am57 °FPassing clouds.10 mph88%30.07 "HgN/A
7:20 am55 °FScattered clouds.7 mph94%30.07 "HgN/A
6:50 am55 °FScattered clouds.6 mph94%30.07 "HgN/A
6:20 am55 °FPartly sunny.6 mph94%30.04 "HgN/A
5:50 am57 °FPassing clouds.6 mph88%30.04 "HgN/A
5:20 am57 °FFog.7 mph94%30.04 "HgN/A
4:50 am57 °FFog.5 mph94%30.04 "HgN/A
4:20 am57 °FFog.5 mph94%30.04 "HgN/A
Weather by CustomWeather, © 2017

See weather overviewHow to use our weather pages